Location: ScottNC Observatory
(36.0892°N, 80.4832°W)
Time: 10:34:34
(UTC-05:00)

Hubble Space Telescope - Visible Passes

Search period start: 20 November 2019 00:00
Search period end: 30 November 2019 00:00
Orbit: 536 x 540 km, 28.5° (Epoch: 19 November)

Date Brightness Start Highest point End Pass type
(mag) Time Alt. Az. Time Alt. Az. Time Alt. Az.
20 Nov 3.0 17:37:43 10° SSW 17:40:11 15° SSE 17:42:40 10° SE visible
20 Nov 2.5 19:17:20 10° SW 19:20:03 25° SSW 19:20:03 25° SSW visible
21 Nov 2.2 19:06:38 10° WSW 19:10:04 28° S 19:10:04 28° S visible
22 Nov 2.1 18:55:57 10° WSW 18:59:30 28° S 19:00:06 27° SSE visible
23 Nov 2.3 18:45:18 10° WSW 18:48:51 28° S 18:50:10 23° SSE visible
24 Nov 2.4 18:34:41 10° WSW 18:38:12 27° S 18:40:17 18° SE visible
25 Nov 2.5 18:24:06 10° WSW 18:27:31 25° S 18:30:27 13° SE visible
26 Nov 2.7 18:13:32 10° WSW 18:16:52 24° S 18:20:11 10° SE visible
27 Nov 2.9 18:03:00 10° WSW 18:06:11 22° SSW 18:09:22 10° SE visible
28 Nov 3.2 17:52:32 10° WSW 17:55:29 19° SSW 17:58:28 10° SSE visible
29 Nov 3.4 17:42:07 10° WSW 17:44:48 17° SSW 17:47:28 10° SSE visible
